Weather History for Marseille, France

Change the Weather History Date:

Saturday, July 6, 2013

  Actual Average Record
Temperature  
Mean Temperature 77 °F -  
Max Temperature 90 °F 84 °F 91 °F (2000)
Min Temperature 64 °F 65 °F 60 °F (2003)
Cooling Degree Days 12    
Growing Degree Days 27 (Base 50)    
Moisture  
Dew Point 61 °F    
Average Humidity 58    
Maximum Humidity 78    
Minimum Humidity 29    
Precipitation  
Precipitation 0.00 in 0.02 in - ()
Sea Level Pressure  
Sea Level Pressure 30.13 in    
Wind  
Wind Speed 7 mph ()    
Max Wind Speed 15 mph    
Max Gust Speed -    
Visibility 6.2 miles    
Events      
Averages and records for this station are not official NWS values.
T = Trace of Precipitation, MM = Missing Value Source: Averaged Metar Reports

Daily Weather History Graph

Daily Weather History Graph

Search for Another Location

Airport:

Trip Planner

Search our weather history database for the weather conditions in past years. The results will help you decide how hot, cold, wet, or windy it might be!

Date:

Astronomy

Jul. 06, 2013 Rise Set
Actual Time 6:05 AM CEST 9:22 PM CEST
Civil Twilight 5:29 AM CEST 9:57 PM CEST
Nautical Twilight 4:44 AM CEST 10:43 PM CEST
Astronomical Twilight 3:47 AM CEST 11:39 PM CEST
Moon 4:40 AM CEST (7/6) 7:50 PM CEST (7/6)
Length of Visible Light 16h 27m
Length of Day
15h 17m
Waning Crescent, 3% of the Moon is Illuminated
Jul 6
Waning Crescent
Jul 8
New
Jul 16
First Quarter
Jul 22
Full
Jul 29
Last Quarter

Hourly Weather History & Observations

Time (CEST) Temp. Heat Index Dew Point Humidity Pressure Visibility Wind Dir Wind Speed Gust Speed Precip Events Conditions
12:00 AM 73.4 °F - 62.6 °F 69% 30.15 in - West 9.2 mph - N/A   Clear
12:30 AM 73.4 °F - 62.6 °F 69% 30.15 in - West 9.2 mph - N/A   Clear
1:00 AM 73.4 °F - 60.8 °F 65% 30.15 in - WNW 9.2 mph - N/A   Clear
1:30 AM 73.4 °F - 60.8 °F 65% 30.15 in 6.2 mi WNW 6.9 mph - N/A   Unknown
2:00 AM 73 °F - 60 °F 55% 30.17 in 37 mi NW 9.2 mph - -   Clear
2:00 AM 73.4 °F - 60.8 °F 65% 30.15 in 6.2 mi NW 9.2 mph - N/A   Unknown
2:30 AM 73.4 °F - 60.8 °F 65% 30.15 in 6.2 mi NW 9.2 mph - N/A   Unknown
3:00 AM 71.6 °F - 60.8 °F 69% 30.15 in 6.2 mi NNW 6.9 mph - N/A   Unknown
3:30 AM 71.6 °F - 60.8 °F 69% 30.15 in 6.2 mi North 4.6 mph - N/A   Unknown
4:00 AM 71.6 °F - 59.0 °F 64% 30.15 in 6.2 mi NNW 6.9 mph - N/A   Unknown
4:30 AM 68.0 °F - 57.2 °F 68% 30.15 in 6.2 mi North 5.8 mph - N/A   Unknown
5:00 AM 68.0 °F - 60.8 °F 78% 30.15 in - North 5.8 mph - N/A   Clear
5:30 AM 66.2 °F - 57.2 °F 73% 30.15 in - NW 2.3 mph - N/A   Clear
6:00 AM 64.4 °F - 57.2 °F 77% 30.15 in - Variable 2.3 mph - N/A   Clear
6:30 AM 64.4 °F - 57.2 °F 77% 30.15 in - SE 3.5 mph - N/A   Clear
7:00 AM 66.2 °F - 59.0 °F 78% 30.15 in - SE 3.5 mph - N/A   Clear
7:30 AM 68.0 °F - 60.8 °F 78% 30.15 in - Variable 2.3 mph - N/A   Clear
8:00 AM 69.8 °F - 59.0 °F 68% 30.15 in - SSE 2.3 mph - N/A   Clear
8:30 AM 71.6 °F - 60.8 °F 69% 30.15 in - Variable 1.2 mph - N/A   Clear
9:00 AM 73.4 °F - 60.8 °F 65% 30.15 in - West 3.5 mph - N/A   Clear
9:30 AM 73.4 °F - 60.8 °F 65% 30.15 in - WSW 4.6 mph - N/A   Clear
10:00 AM 75.2 °F - 60.8 °F 61% 30.15 in - WSW 4.6 mph - N/A   Clear
10:30 AM 77.0 °F - 62.6 °F 61% 30.15 in - WSW 5.8 mph - N/A   Clear
11:00 AM 78.8 °F - 62.6 °F 57% 30.15 in - WSW 5.8 mph - N/A   Clear
11:30 AM 80.6 °F 81.8 °F 62.6 °F 54% 30.15 in - WSW 6.9 mph - N/A   Clear
12:00 PM 82.4 °F 82.9 °F 60.8 °F 48% 30.15 in - WSW 6.9 mph - N/A   Clear
12:30 PM 84.2 °F 83.8 °F 59.0 °F 42% 30.15 in - West 5.8 mph - N/A   Clear
1:30 PM 86.0 °F 85.4 °F 59.0 °F 40% 30.12 in - West 5.8 mph - N/A   Clear
2:00 PM 88 °F - 60 °F 29% 30.13 in 37 mi West 5.8 mph - -  
2:00 PM 87.8 °F 87.1 °F 59.0 °F 38% 30.12 in - West 5.8 mph - N/A   Clear
2:30 PM 87.8 °F 88.5 °F 62.6 °F 43% 30.12 in - West 6.9 mph - N/A   Clear
3:00 PM 89.6 °F 89.5 °F 60.8 °F 38% 30.12 in - WSW 6.9 mph - N/A   Clear
3:30 PM 89.6 °F 89.5 °F 60.8 °F 38% 30.12 in - WSW 10.4 mph - N/A   Clear
4:00 PM 89.6 °F 90.1 °F 62.6 °F 40% 30.09 in - WSW 12.7 mph - N/A   Clear
4:30 PM 87.8 °F 88.5 °F 62.6 °F 43% 30.09 in - WSW 13.8 mph - N/A   Clear
5:00 PM 87.8 °F 88.5 °F 62.6 °F 43% 30.09 in - WSW 13.8 mph - N/A   Clear
5:30 PM 86.0 °F 86.1 °F 60.8 °F 43% 30.09 in - WSW 12.7 mph - N/A   Clear
6:00 PM 86.0 °F 86.1 °F 60.8 °F 43% 30.09 in - WSW 12.7 mph - N/A   Clear
6:30 PM 86.0 °F 86.1 °F 60.8 °F 43% 30.09 in - WSW 13.8 mph - N/A   Clear
7:00 PM 82.4 °F 82.9 °F 60.8 °F 48% 30.09 in - WSW 15.0 mph - N/A   Clear
7:30 PM 80.6 °F 81.5 °F 60.8 °F 51% 30.09 in - WSW 13.8 mph - N/A   Clear
8:00 PM 80 °F - 62 °F 45% 30.12 in 37 mi WSW 10.4 mph - -   Scattered Clouds
8:00 PM 80.6 °F 81.5 °F 60.8 °F 51% 30.09 in - WSW 10.4 mph - N/A   Clear
8:30 PM 77.0 °F - 62.6 °F 61% 30.12 in - WSW 10.4 mph - N/A   Clear
9:00 PM 77.0 °F - 62.6 °F 61% 30.12 in - SW 8.1 mph - N/A   Clear
9:30 PM 75.2 °F - 60.8 °F 61% 30.12 in - WSW 11.5 mph - N/A   Clear
10:00 PM 73.4 °F - 60.8 °F 65% 30.15 in - SW 6.9 mph - N/A   Clear
11:00 PM 73.4 °F - 60.8 °F 65% 30.15 in - SSW 5.8 mph - N/A   Clear
11:30 PM 71.6 °F - 60.8 °F 69% 30.15 in - WSW 5.8 mph - N/A   Clear